• în România
  • Lista ţărilor
  • Pe 7 zile
  • Temperatura apei
  • Hartă satelitară
  • Meteo pe hartă
  • Widget-uri
  • user-avatar
    Intrare

    Meteo pe oră la Luanda

    Astăzi, 21 Septembrie, Joi

    Timp Temperatura Precipitaţii Vânt Presiune Umiditate
    00:00 +26°C° 0 mm 3 m/s 755 mmHg 79%
    01:00 +26°C° 0 mm 2 m/s 755 mmHg 77%
    02:00 +26°C° 0 mm 3 m/s 755 mmHg 77%
    03:00 +25°C° 0 mm 3 m/s 755 mmHg 77%
    04:00 +25°C° 0 mm 3 m/s 755 mmHg 77%
    05:00 +25°C° 0 mm 3 m/s 755 mmHg 77%
    06:00 +26°C° 0 mm 2 m/s 755 mmHg 76%
    07:00 +26°C° 0 mm 3 m/s 756 mmHg 75%
    08:00 +27°C° 0 mm 3 m/s 756 mmHg 68%
    09:00 +29°C° 0 mm 3 m/s 756 mmHg 61%
    10:00 +30°C° 0 mm 3 m/s 756 mmHg 54%
    11:00 +33°C° 0 mm 4 m/s 755 mmHg 51%
    12:00 +34°C° 0 mm 4 m/s 754 mmHg 47%
    13:00 +35°C° 0 mm 5 m/s 754 mmHg 44%
    14:00 +34°C° 0 mm 5 m/s 753 mmHg 47%
    15:00 +33°C° 0 mm 5 m/s 753 mmHg 51%
    16:00 +32°C° 0 mm 6 m/s 752 mmHg 55%
    17:00 +29°C° 0 mm 5 m/s 753 mmHg 62%
    18:00 +28°C° 0 mm 5 m/s 753 mmHg 69%
    19:00 +26°C° 0 mm 5 m/s 754 mmHg 76%
    20:00 +26°C° 0 mm 4 m/s 754 mmHg 77%
    21:00 +26°C° 0 mm 4 m/s 755 mmHg 79%
    22:00 +25°C° 0 mm 3 m/s 755 mmHg 80%
    23:00 +25°C° 0 mm 3 m/s 755 mmHg 81%

    Mâine, 22 Septembrie, Vineri

    Timp Temperatura Precipitaţii Vânt Presiune Umiditate
    00:00 +25°C° 0 mm 3 m/s 755 mmHg 81%
    01:00 +25°C° 0 mm 3 m/s 755 mmHg 82%
    02:00 +25°C° 0 mm 3 m/s 754 mmHg 81%
    03:00 +25°C° 0 mm 3 m/s 754 mmHg 80%
    04:00 +25°C° 0 mm 3 m/s 754 mmHg 79%
    05:00 +25°C° 0 mm 3 m/s 755 mmHg 78%
    06:00 +25°C° 0 mm 2 m/s 755 mmHg 77%
    07:00 +26°C° 0 mm 2 m/s 756 mmHg 76%
    08:00 +27°C° 0 mm 2 m/s 756 mmHg 68%
    09:00 +29°C° 0 mm 2 m/s 756 mmHg 61%
    10:00 +30°C° 0 mm 1 m/s 756 mmHg 54%
    11:00 +31°C° 0 mm 2 m/s 755 mmHg 51%
    12:00 +33°C° 0 mm 3 m/s 754 mmHg 48%
    13:00 +34°C° 0 mm 4 m/s 754 mmHg 45%
    14:00 +33°C° 0 mm 5 m/s 753 mmHg 49%
    15:00 +32°C° 0 mm 5 m/s 752 mmHg 53%
    16:00 +30°C° 0 mm 5 m/s 752 mmHg 58%
    17:00 +29°C° 0 mm 5 m/s 752 mmHg 64%
    18:00 +27°C° 0 mm 4 m/s 753 mmHg 70%
    19:00 +26°C° 0 mm 4 m/s 753 mmHg 76%
    20:00 +26°C° 0 mm 4 m/s 754 mmHg 76%
    21:00 +26°C° 0 mm 4 m/s 755 mmHg 77%
    22:00 +26°C° 0 mm 3 m/s 756 mmHg 78%
    23:00 +26°C° 0,1 mm 3 m/s 756 mmHg 77%

    Poimâine, 23 Septembrie, Sâmbătă

    Timp Temperatura Precipitaţii Vânt Presiune Umiditate
    00:00 +26°C° 0,1 mm 3 m/s 755 mmHg 76%
    01:00 +26°C° 0,1 mm 2 m/s 755 mmHg 75%
    02:00 +26°C° 0,1 mm 2 m/s 755 mmHg 75%
    03:00 +25°C° 0,1 mm 2 m/s 755 mmHg 76%
    04:00 +25°C° 0,1 mm 2 m/s 754 mmHg 76%
    05:00 +25°C° 0 mm 2 m/s 754 mmHg 76%
    06:00 +25°C° 0 mm 2 m/s 755 mmHg 76%
    07:00 +25°C° 0 mm 3 m/s 755 mmHg 76%
    08:00 +27°C° 0 mm 2 m/s 755 mmHg 70%
    09:00 +28°C° 0 mm 2 m/s 756 mmHg 63%
    10:00 +29°C° 0 mm 2 m/s 756 mmHg 57%
    11:00 +30°C° 0 mm 3 m/s 755 mmHg 54%
    12:00 +31°C° 0 mm 3 m/s 754 mmHg 50%
    13:00 +33°C° 0 mm 4 m/s 754 mmHg 47%
    14:00 +32°C° 0 mm 4 m/s 753 mmHg 51%
    15:00 +30°C° 0 mm 4 m/s 753 mmHg 54%
    16:00 +29°C° 0 mm 5 m/s 752 mmHg 58%
    17:00 +28°C° 0 mm 5 m/s 753 mmHg 63%
    18:00 +27°C° 0 mm 5 m/s 753 mmHg 69%
    19:00 +26°C° 0 mm 4 m/s 754 mmHg 74%
    20:00 +26°C° 0 mm 4 m/s 755 mmHg 75%
    21:00 +26°C° 0 mm 3 m/s 755 mmHg 77%
    22:00 +25°C° 0 mm 3 m/s 756 mmHg 78%
    23:00 +25°C° 0 mm 3 m/s 756 mmHg 79%

    24 Septembrie, Duminică

    Timp Temperatura Precipitaţii Vânt Presiune Umiditate
    00:00 +25°C° 0 mm 3 m/s 756 mmHg 79%
    01:00 +25°C° 0 mm 3 m/s 755 mmHg 80%
    02:00 +25°C° 0,1 mm 2 m/s 755 mmHg 79%
    03:00 +25°C° 0,1 mm 2 m/s 755 mmHg 79%
    04:00 +25°C° 0,1 mm 2 m/s 755 mmHg 78%
    05:00 +25°C° 0,1 mm 2 m/s 756 mmHg 77%
    06:00 +25°C° 0,1 mm 2 m/s 756 mmHg 76%
    07:00 +25°C° 0,1 mm 2 m/s 756 mmHg 76%
    08:00 +27°C° 0 mm 2 m/s 756 mmHg 68%
    09:00 +29°C° 0 mm 2 m/s 756 mmHg 60%
    10:00 +30°C° 0 mm 2 m/s 757 mmHg 52%
    11:00 +31°C° 0 mm 3 m/s 756 mmHg 50%
    12:00 +33°C° 0 mm 3 m/s 755 mmHg 47%
    13:00 +33°C° 0 mm 3 m/s 754 mmHg 44%
    14:00 +33°C° 0 mm 4 m/s 754 mmHg 46%
    15:00 +32°C° 0 mm 4 m/s 753 mmHg 48%
    16:00 +32°C° 0 mm 4 m/s 753 mmHg 50%
    17:00 +29°C° 0 mm 4 m/s 753 mmHg 56%
    18:00 +28°C° 0 mm 4 m/s 754 mmHg 63%
    19:00 +27°C° 0 mm 3 m/s 754 mmHg 69%
    20:00 +26°C° 0 mm 3 m/s 755 mmHg 71%
    21:00 +26°C° 0 mm 3 m/s 755 mmHg 73%
    22:00 +26°C° 0 mm 3 m/s 755 mmHg 75%
    23:00 +25°C° 0 mm 3 m/s 755 mmHg 77%

    25 Septembrie, Luni

    Timp Temperatura Precipitaţii Vânt Presiune Umiditate
    00:00 +25°C° 0 mm 3 m/s 755 mmHg 79%
    01:00 +25°C° 0 mm 3 m/s 755 mmHg 82%
    02:00 +25°C° 0 mm 3 m/s 755 mmHg 82%
    03:00 +25°C° 0 mm 2 m/s 755 mmHg 82%
    04:00 +25°C° 0 mm 2 m/s 755 mmHg 82%
    05:00 +25°C° 0 mm 2 m/s 755 mmHg 81%
    06:00 +25°C° 0 mm 2 m/s 756 mmHg 80%
    07:00 +25°C° 0 mm 2 m/s 756 mmHg 79%
    08:00 +26°C° 0 mm 2 m/s 756 mmHg 73%
    09:00 +27°C° 0 mm 2 m/s 756 mmHg 68%
    10:00 +28°C° 0 mm 2 m/s 756 mmHg 62%
    11:00 +29°C° 0 mm 2 m/s 755 mmHg 58%
    12:00 +30°C° 0 mm 2 m/s 755 mmHg 54%
    13:00 +31°C° 0 mm 3 m/s 754 mmHg 51%
    14:00 +31°C° 0 mm 3 m/s 753 mmHg 51%
    15:00 +32°C° 0 mm 4 m/s 753 mmHg 52%
    16:00 +32°C° 0 mm 4 m/s 752 mmHg 52%
    17:00 +29°C° 0 mm 4 m/s 753 mmHg 59%
    18:00 +28°C° 0 mm 4 m/s 753 mmHg 65%
    19:00 +26°C° 0 mm 3 m/s 754 mmHg 72%
    20:00 +26°C° 0 mm 3 m/s 754 mmHg 74%
    21:00 +26°C° 0 mm 3 m/s 754 mmHg 75%
    22:00 +25°C° 0 mm 3 m/s 755 mmHg 77%
    23:00 +25°C° 0 mm 3 m/s 755 mmHg 78%

    26 Septembrie, Marţi

    Timp Temperatura Precipitaţii Vânt Presiune Umiditate
    00:00 +25°C° 0 mm 3 m/s 754 mmHg 80%
    01:00 +24°C° 0 mm 3 m/s 754 mmHg 81%
    02:00 +24°C° 0 mm 3 m/s 754 mmHg 82%
    03:00 +24°C° 0 mm 3 m/s 754 mmHg 83%
    04:00 +24°C° 0 mm 2 m/s 754 mmHg 83%
    05:00 +24°C° 0 mm 2 m/s 755 mmHg 82%
    06:00 +24°C° 0 mm 2 m/s 755 mmHg 81%
    07:00 +25°C° 0 mm 2 m/s 755 mmHg 79%
    08:00 +26°C° 0 mm 2 m/s 755 mmHg 73%
    09:00 +27°C° 0 mm 2 m/s 755 mmHg 67%
    10:00 +28°C° 0 mm 2 m/s 755 mmHg 61%
    11:00 +29°C° 0 mm 2 m/s 755 mmHg 56%
    12:00 +31°C° 0 mm 3 m/s 754 mmHg 51%
    13:00 +33°C° 0 mm 3 m/s 753 mmHg 46%
    14:00 +32°C° 0 mm 4 m/s 753 mmHg 49%
    15:00 +32°C° 0 mm 4 m/s 752 mmHg 51%
    16:00 +30°C° 0 mm 5 m/s 752 mmHg 54%
    17:00 +29°C° 0 mm 4 m/s 753 mmHg 60%
    18:00 +27°C° 0 mm 4 m/s 753 mmHg 65%
    19:00 +26°C° 0 mm 4 m/s 754 mmHg 71%
    20:00 +26°C° 0 mm 4 m/s 754 mmHg 73%
    21:00 +25°C° 0 mm 4 m/s 754 mmHg 75%
    22:00 +25°C° 0 mm 3 m/s 755 mmHg 77%
    23:00 +25°C° 0 mm 3 m/s 754 mmHg 78%
    Arată mai mult